Dakar 2012 14ème étape

Dakar 2012 Argentine/Chili/Perou 14ème étape

Source : http://dakar.sport.francetv.fr/tous-les-classements

dimanche 15 janvier : Liaison 254km - Spécial 29km

Classement de la 14ème étape Moto - Pisco-Lima

RangNuméroPilote/EquipageEquipeMarque - ModèleTempsRetard
1 006 ULLEVALSETER Pal Anders TEAM ULLEVALSETER KTM - 450 R 00:22:26
2 001 COMA Marc KTM MRW RALLY DAKAR EAM KTM - 450 cc 00:23:34 00:01:08
3 032 SVITKO Stefan HANT LOGOMOTION SLOVAKIA KTM - 450 RR 00:24:09 00:01:43
4 020 FARRES GUELL Gerard BORDONE-FERRARI KTM - 450 RALLY REPLICA 00:24:27 00:02:01
5 034 BOTTURI ALESSANDRO BORDONE-FERRARI KTM - 450 RALLY REPLICA 00:24:37 00:02:11
6 016 PAIN Olivier TEAM YAMAHA RACING YAMAHA - 450 YZF Rally 00:25:21 00:02:55
7 010 VILADOMS Jordi BORDONE-FERRARI KTM - Rally Replica 00:26:01 00:03:35
8 003 RODRIGUES Helder TEAM YAMAHA RACING YAMAHA - WRF 450 00:26:07 00:03:41
9 023 BARREDA BORT Joan HUSQVARNA RALLYE TEAM BY SPEEDBRAIN HUSQVARNA - Rally 450 RR 00:26:10 00:03:44
10 002 DESPRES Cyril TEAM RED BULL KTM KTM - 450cc Rally 00:26:17 00:03:51
11 041 PROHENS Felipe TAMARUGAL HONDA RACING XC RALLY TEAM HONDA (Transformada) - CRF450X RALLY 00:27:18 00:04:52
12 017 CZACHOR Jacek ORLEN TEAM KTM - 450 Replica 00:27:34 00:05:08
13 028 ZANOL FELIPE KTM BRASIL KTM - 450 Replica 00:27:36 00:05:10
14 015 VERHOEVEN Frans SHERCO RALLY RAID - CROCOAVENTURES SHERCO - SR 450 00:27:40 00:05:14
15 050 SALVATIERRA Juan Carlos GHR HONDA HONDA - CRF450X 00:28:02 00:05:36
16 035 CECI Paolo BORDONE-FERRARI KTM - 450 RR 00:28:35 00:06:09
17 022 DUCLOS Alain GIOFIL APRILIA APRILIA - RXV 4.5 Rally 00:28:39 00:06:13
18 018 KNUIMAN Henk WIM MOTORS DAKAR KTM - 450 REPLICA 00:29:02 00:06:36
19 029 BERGLUND Thomas HUSABERG RALLY TEAM SCANDINAVIA HUSABERG - FE 450 00:29:11 00:06:45
20 021 AUBERT JOHNNY KTM RALLY FACTORY TEAM KTM - 450 RALLY 00:29:22 00:06:56
21 042 PROHENS Jaime TAMARUGAL HONDA RACING XC RALLY TEAM HONDA - CRF 450X RALLY 00:29:23 00:06:57
22 039 GYENES Emanuel VECTRA RACING KTM - 450 RR 00:29:50 00:07:24
23 026 RODRIGUES FILHO Jose helio HUSQVARNA RALLYE TEAM BY SPEEDBRAIN HUQSVARNA - RALLY 450 RR 00:29:53 00:07:27
24 058 PUERTAS HERRERA Miguel HIMOINSA DAKAR TEAM YAMAHA - 450 WR 00:29:54 00:07:28
25 007 GONCALVES Paulo HUSQVARNA RALLYE TEAM BY SPEEDBRAIN Husqvarna - Rally 450 RR 00:30:00 00:07:34
26 012 PELLICER Jose Manuel HUSQVARNA RALLYE TEAM BY SPEEDBRAIN HUSQVARNA - Rally 450 RR 00:30:47 00:08:21
27 144 CURTIS Darryl MEMO TOURS - ALFIE COX TEAM KTM - 450 Replica 00:30:49 00:08:23
28 089 NASCIMENTO DENISIO PETROBRAS LUBRAX HONDA - CRF 450 00:31:00 00:08:34
29 033 BETHYS Thierry YAMAHA - 450 YZF Rally 00:31:02 00:08:36
30 064 SCHRÖDER DANIEL MEMO TOURS - ALFIE COX TEAM KTM - 450cc 00:31:05 00:08:39
31 046 BIANCHI PRATA Pedro TEAM BIANCHI PRATA / VODAFONE HUSQUARNA - TE449 RALLY 00:31:05 00:08:39
32 159 CHITTICK Jamie GHR HONDA HONDA - CRF450X 00:31:17 00:08:51
33 181 RIOS FELIPE KTM PERU RALLY TEAM KTM - Rally Replica 00:31:28 00:09:02
34 049 DABROWSKI Marek ORLEN TEAM KTM - 450 RR 00:31:50 00:09:24
35 040 SERRADORI Mathieu KTM - 450 Rally 00:32:02 00:09:36
36 145 NUTTALL Dean MEMO TOURS - ALFIE COX TEAM KTM - 450 Replica 00:32:09 00:09:43
37 077 PICCO Franco FRANCO PICCO RACING YAMAHA - WRF 450 00:32:09 00:09:43
38 082 GUINDANI Vincent HFP YAMAHA - YZR 450 00:32:26 00:10:00
39 060 WATT Stanley FRONT ROW GB / CRECENT KTM KTM - 450 RR 00:32:45 00:10:19
40 110 BIRCH Christopher MEMO TOURS - ALFIE COX TEAM KTM - 450 Replica 00:32:46 00:10:20
41 072 GOUNON SERGE EMS KTM - 450 RR 00:32:51 00:10:25
42 076 PEDERZOLI Claudio ON-OFF RACING TEAM YAMAHA - WR 450 00:33:00 00:10:34
43 086 MUNK Jes X-RAGE RACING KTM - 450 00:33:00 00:10:34
44 185 SANCHEZ MARCELO TEAM RPM KAWASAKI KAWASAKI - KLX 450 R 00:33:15 00:10:49
45 069 PAYEN Hugo YAMAHA - 450 WRF 00:33:19 00:10:53
46 138 LECOQ SEBASTIEN TEAM PERFORMANCE ENDURO YAMAHA - 450 YZFE 00:33:28 00:11:02
47 107 BODINGER Ronnie HUSABERG FACTORY TEAM HUSABERG - FE 450 00:33:40 00:11:14
48 059 CIOTTI Filippo FRANCO PICCO RACING RIEJU - MRT 450 00:33:47 00:11:21
49 066 LORMAND Etienne ROUSSILL'HOTEL - HFP YAMAHA - 450 WRF 00:33:48 00:11:22
50 122 PALANTE Eric WIM MOTORS RACING DIVISION KTM - 450 RR FREVA 00:33:50 00:11:24
51 081 SUESSE NED ADVRIDER/ NEDURO KTM - 450XCW 00:33:55 00:11:29
52 068 BARROT David POWERBIKE YAMAHA IPONE YAMAHA - 450 IZF RALLY 00:34:06 00:11:40
53 061 MATTOS Dimas BRASIL MOTO TOUR KTM - 450 RR 00:34:23 00:11:57
54 045 SANZ PLA-GILIBERT Eulalia GAS GAS GAS - GAS - EC 450 00:34:51 00:12:25
55 120 ILLANES Rodrigo TARAPACA RALLY TEAM Husqvarna - TE 449 00:34:56 00:12:30
56 057 WILLEMSEN Daniel TEAM HONDA EUROPE HONDA - CRF 450 X 00:35:00 00:12:34
57 087 MEILLAT Christophe C.M PROMO KAWASAKI - KLX 450 R 00:35:01 00:12:35
58 174 MARTÍNEZ Paco PACO MARTINEZ KAWASAKI - KX450 00:35:03 00:12:37
59 183 RODRIGUEZ Pablo HONDA RACING ARGENTINA HONDA - CRF450X 00:35:08 00:12:42
60 100 VESELY Jan CZECH DAKAR TEAM YAMAHA - WR 450F 00:35:40 00:13:14
61 056 MENARD Jean-Christophe HFP YAMAHA - 450 YZF 00:36:13 00:13:47
62 129 DEPOORTER Philippe WIM MOTORS DAKAR KTM - 450 00:36:14 00:13:48
63 093 GOMEZ Jorge VEMOTOR CANARIAS Husqvarna - 450cc 00:36:50 00:14:24
64 099 CHERPIN Pierre KTM - 450 RR 00:36:57 00:14:31
65 102 ALAN Eduardo ELF ARGENTINA Yamaha - WR 450 00:37:21 00:14:55
66 071 BUTUZA Marcel BOANO HONDA - CRE F 450 X 00:37:25 00:14:59
67 164 DEMELCHORI DIEGO TEAM RPM KAWASAKI KAWASAKI - 2009 00:37:47 00:15:21
68 148 GOMEZ Mauricio PACO GOMEZ RALLY TEAM YAMAHA - WR 450 00:37:48 00:15:22
69 176 RAAF Greg MEMO TOURS - ALFIE COX TEAM KTM - 450 Replica 00:38:10 00:15:44
70 014 CASTEU David TEAM YAMAHA RACING YAMAHA - 450 WRF Rally 00:38:12 00:15:46
71 062 SCHWARZ David HUSABERG RALLYE RACING AUSTRALIA HUSABERG - FE450 00:38:26 00:16:00
72 128 ANO Julio TEAM NORMAND RAID YAMAHA - WRF 450 00:38:30 00:16:04
73 075 BUSIN Pablo MOTO TEAM BY ELF YAMAHA - 450 WR 00:38:33 00:16:07
74 065 LAZARD Laurent MOTO TEAM BY ELF YAMAHA - WR 450 00:38:39 00:16:13
75 149 CIPKA DUSAN SLOVAKIA TURBOTEAM ZATKO BMW - G450X 00:38:41 00:16:15
76 140 REINIKE MARCO MARCO REINIKE KTM - 450 RALLY REPLICA 00:38:42 00:16:16
77 136 IGARIS GINTAUTAS YAMAHA - WR450F 00:38:45 00:16:19
78 092 HAMARD Stephane REUNION RALLYE RAID KTM - 450 RR 00:38:55 00:16:29
79 053 RODRIGUEZ Claudio TAMARUGAL HONDA RACING XC RALLY TEAM HONDA - CRF 450 X 00:39:02 00:16:36
80 154 GAJDOSECH ROBERTO ANTONIO ATUEL MOTOS YAMAHA - WR 450 00:39:05 00:16:39
81 074 KOFMAN Erik KTM - 450 RR 00:39:17 00:16:51
82 151 BEALUSTEGUI Juan Manuel AL LIMITE DAKAR 2012 YAMAHA - WR 450 F 00:39:38 00:17:12
83 073 BONY BRUNO EMS KTM - 450 RR 00:40:13 00:17:47
84 125 ASTORI Gianernesto ABC RALLY ACTION TEAM KTM - 450 RR 00:40:15 00:17:49
85 187 YOUNGER TOBIAS DESERT ROSE RACING KTM - 450EXC 00:40:19 00:17:53
86 085 PENATE MUNOZ Pedro Manuel KH7 VALSEBIKE KTM - 450 00:40:41 00:18:15
87 165 MULDER GEERT TEAM HONDA EUROPE HONDA - CFR 450 X 00:42:37 00:20:11
88 158 VELLUTINO Carlo PERUANOS AL DAKAR KTM - 450 EXC 2011 00:43:17 00:20:51
89 111 ESPINASSE SYLVAIN SHERCO RALLY RAID - CROCOAVENTURES SHERCO - SR 450 00:43:41 00:21:15
90 168 GUIRAL DEMIAN AVANT MOTOS HONDA GENUINE OIL HONDA - CRF 450X 00:43:46 00:21:20
91 152 TER BEEK RONALD GHR HONDA HONDA - CFR 450 X 00:45:01 00:22:35
92 080 PASCUAL Pablo oscar JINCHENG TEAM JINCHENG - JC450Y 00:45:53 00:23:27
93 131 THEURIOT Herve REVIVAL AVENTURES YAMAHA - 450 WRF 00:46:18 00:23:52
94 160 HAMEL ERIC YAMAHA - 450 WRF 00:46:19 00:23:53
95 008 FARIA Ruben TEAM RED BULL KTM KTM - 450 CC RALLY 00:47:17 00:24:51
96 094 WEI Guanghui JINCHENG TEAM JINCHENG - JC 450Y 00:53:32 00:31:06
97 091 TONETTI NICOLA TEAM BOANO HONDA - CRF 450 X 00:57:28 00:35:02

Classement général Moto

RangNuméroPilote/EquipageEquipeMarque - ModèleTempsRetard
1 002 DESPRES Cyril TEAM RED BULL KTM KTM - 450cc Rally 43:28:11
2 001 COMA Marc KTM MRW RALLY DAKAR EAM KTM - 450 cc 44:21:31 00:53:20
3 003 RODRIGUES Helder TEAM YAMAHA RACING YAMAHA - WRF 450 44:39:28 01:11:17
4 010 VILADOMS Jordi BORDONE-FERRARI KTM - Rally Replica 45:09:07 01:40:56
5 032 SVITKO Stefan HANT LOGOMOTION SLOVAKIA KTM - 450 RR 45:15:39 01:47:28
6 006 ULLEVALSETER Pal Anders TEAM ULLEVALSETER KTM - 450 R 45:40:07 02:11:56
7 020 FARRES GUELL Gerard BORDONE-FERRARI KTM - 450 RALLY REPLICA 45:42:33 02:14:22
8 034 BOTTURI ALESSANDRO BORDONE-FERRARI KTM - 450 RALLY REPLICA 46:27:15 02:59:04
9 016 PAIN Olivier TEAM YAMAHA RACING YAMAHA - 450 YZF Rally 46:46:01 03:17:50
10 028 ZANOL FELIPE KTM BRASIL KTM - 450 Replica 46:54:07 03:25:56
11 023 BARREDA BORT Joan HUSQVARNA RALLYE TEAM BY SPEEDBRAIN HUSQVARNA - Rally 450 RR 47:05:36 03:37:25
12 008 FARIA Ruben TEAM RED BULL KTM KTM - 450 CC RALLY 47:41:21 04:13:10
13 017 CZACHOR Jacek ORLEN TEAM KTM - 450 Replica 48:07:20 04:39:09
14 021 AUBERT JOHNNY KTM RALLY FACTORY TEAM KTM - 450 RALLY 48:07:50 04:39:39
15 015 VERHOEVEN Frans SHERCO RALLY RAID - CROCOAVENTURES SHERCO - SR 450 48:34:07 05:05:56
16 018 KNUIMAN Henk WIM MOTORS DAKAR KTM - 450 REPLICA 48:46:05 05:17:54
17 039 GYENES Emanuel VECTRA RACING KTM - 450 RR 48:58:37 05:30:26
18 035 CECI Paolo BORDONE-FERRARI KTM - 450 RR 49:12:56 05:44:45
19 026 RODRIGUES FILHO Jose helio HUSQVARNA RALLYE TEAM BY SPEEDBRAIN HUQSVARNA - RALLY 450 RR 49:44:46 06:16:35
20 064 SCHRÖDER DANIEL MEMO TOURS - ALFIE COX TEAM KTM - 450cc 49:47:51 06:19:40
21 033 BETHYS Thierry YAMAHA - 450 YZF Rally 50:37:25 07:09:14
22 144 CURTIS Darryl MEMO TOURS - ALFIE COX TEAM KTM - 450 Replica 50:51:43 07:23:32
23 012 PELLICER Jose Manuel HUSQVARNA RALLYE TEAM BY SPEEDBRAIN HUSQVARNA - Rally 450 RR 51:09:20 07:41:09
24 089 NASCIMENTO DENISIO PETROBRAS LUBRAX HONDA - CRF 450 51:21:38 07:53:27
25 040 SERRADORI Mathieu KTM - 450 Rally 51:28:09 07:59:58
26 007 GONCALVES Paulo HUSQVARNA RALLYE TEAM BY SPEEDBRAIN Husqvarna - Rally 450 RR 51:38:37 08:10:26
27 110 BIRCH Christopher MEMO TOURS - ALFIE COX TEAM KTM - 450 Replica 51:58:34 08:30:23
28 041 PROHENS Felipe TAMARUGAL HONDA RACING XC RALLY TEAM HONDA (Transformada) - CRF450X RALLY 52:45:45 09:17:34
29 049 DABROWSKI Marek ORLEN TEAM KTM - 450 RR 52:51:03 09:22:52
30 082 GUINDANI Vincent HFP YAMAHA - YZR 450 52:58:13 09:30:02
31 050 SALVATIERRA Juan Carlos GHR HONDA HONDA - CRF450X 53:16:49 09:48:38
32 042 PROHENS Jaime TAMARUGAL HONDA RACING XC RALLY TEAM HONDA - CRF 450X RALLY 53:17:25 09:49:14
33 053 RODRIGUEZ Claudio TAMARUGAL HONDA RACING XC RALLY TEAM HONDA - CRF 450 X 53:51:50 10:23:39
34 060 WATT Stanley FRONT ROW GB / CRECENT KTM KTM - 450 RR 54:38:41 11:10:30
35 066 LORMAND Etienne ROUSSILL'HOTEL - HFP YAMAHA - 450 WRF 54:42:16 11:14:05
36 183 RODRIGUEZ Pablo HONDA RACING ARGENTINA HONDA - CRF450X 55:25:07 11:56:56
37 029 BERGLUND Thomas HUSABERG RALLY TEAM SCANDINAVIA HUSABERG - FE 450 55:42:10 12:13:59
38 057 WILLEMSEN Daniel TEAM HONDA EUROPE HONDA - CRF 450 X 55:49:12 12:21:01
39 045 SANZ PLA-GILIBERT Eulalia GAS GAS GAS - GAS - EC 450 55:59:54 12:31:43
40 145 NUTTALL Dean MEMO TOURS - ALFIE COX TEAM KTM - 450 Replica 56:15:54 12:47:43
41 014 CASTEU David TEAM YAMAHA RACING YAMAHA - 450 WRF Rally 56:23:12 12:55:01
42 046 BIANCHI PRATA Pedro TEAM BIANCHI PRATA / VODAFONE HUSQUARNA - TE449 RALLY 56:28:33 13:00:22
43 062 SCHWARZ David HUSABERG RALLYE RACING AUSTRALIA HUSABERG - FE450 56:41:41 13:13:30
44 071 BUTUZA Marcel BOANO HONDA - CRE F 450 X 56:57:02 13:28:51
45 077 PICCO Franco FRANCO PICCO RACING YAMAHA - WRF 450 57:14:45 13:46:34
46 154 GAJDOSECH ROBERTO ANTONIO ATUEL MOTOS YAMAHA - WR 450 57:20:02 13:51:51
47 148 GOMEZ Mauricio PACO GOMEZ RALLY TEAM YAMAHA - WR 450 57:40:32 14:12:21
48 185 SANCHEZ MARCELO TEAM RPM KAWASAKI KAWASAKI - KLX 450 R 57:53:45 14:25:34
49 181 RIOS FELIPE KTM PERU RALLY TEAM KTM - Rally Replica 57:55:54 14:27:43
50 138 LECOQ SEBASTIEN TEAM PERFORMANCE ENDURO YAMAHA - 450 YZFE 58:36:11 15:08:00
51 059 CIOTTI Filippo FRANCO PICCO RACING RIEJU - MRT 450 58:41:40 15:13:29
52 086 MUNK Jes X-RAGE RACING KTM - 450 58:47:31 15:19:20
53 081 SUESSE NED ADVRIDER/ NEDURO KTM - 450XCW 58:52:00 15:23:49
54 159 CHITTICK Jamie GHR HONDA HONDA - CRF450X 58:52:54 15:24:43
55 092 HAMARD Stephane REUNION RALLYE RAID KTM - 450 RR 59:30:02 16:01:51
56 087 MEILLAT Christophe C.M PROMO KAWASAKI - KLX 450 R 59:40:33 16:12:22
57 061 MATTOS Dimas BRASIL MOTO TOUR KTM - 450 RR 59:58:10 16:29:59
58 022 DUCLOS Alain GIOFIL APRILIA APRILIA - RXV 4.5 Rally 60:38:24 17:10:13
59 056 MENARD Jean-Christophe HFP YAMAHA - 450 YZF 60:46:32 17:18:21
60 069 PAYEN Hugo YAMAHA - 450 WRF 60:50:22 17:22:11
61 165 MULDER GEERT TEAM HONDA EUROPE HONDA - CFR 450 X 61:00:07 17:31:56
62 065 LAZARD Laurent MOTO TEAM BY ELF YAMAHA - WR 450 61:27:30 17:59:19
63 058 PUERTAS HERRERA Miguel HIMOINSA DAKAR TEAM YAMAHA - 450 WR 61:38:53 18:10:42
64 168 GUIRAL DEMIAN AVANT MOTOS HONDA GENUINE OIL HONDA - CRF 450X 61:48:19 18:20:08
65 100 VESELY Jan CZECH DAKAR TEAM YAMAHA - WR 450F 62:40:39 19:12:28
66 122 PALANTE Eric WIM MOTORS RACING DIVISION KTM - 450 RR FREVA 62:42:09 19:13:58
67 164 DEMELCHORI DIEGO TEAM RPM KAWASAKI KAWASAKI - 2009 63:22:40 19:54:29
68 075 BUSIN Pablo MOTO TEAM BY ELF YAMAHA - 450 WR 63:38:13 20:10:02
69 076 PEDERZOLI Claudio ON-OFF RACING TEAM YAMAHA - WR 450 63:52:13 20:24:02
70 072 GOUNON SERGE EMS KTM - 450 RR 64:01:59 20:33:48
71 093 GOMEZ Jorge VEMOTOR CANARIAS Husqvarna - 450cc 65:24:41 21:56:30
72 080 PASCUAL Pablo oscar JINCHENG TEAM JINCHENG - JC450Y 65:40:54 22:12:43
73 074 KOFMAN Erik KTM - 450 RR 66:31:24 23:03:13
74 068 BARROT David POWERBIKE YAMAHA IPONE YAMAHA - 450 IZF RALLY 66:46:55 23:18:44
75 149 CIPKA DUSAN SLOVAKIA TURBOTEAM ZATKO BMW - G450X 67:09:24 23:41:13
76 073 BONY BRUNO EMS KTM - 450 RR 67:44:00 24:15:49
77 091 TONETTI NICOLA TEAM BOANO HONDA - CRF 450 X 68:37:11 25:09:00
78 174 MARTÍNEZ Paco PACO MARTINEZ KAWASAKI - KX450 69:08:32 25:40:21
79 107 BODINGER Ronnie HUSABERG FACTORY TEAM HUSABERG - FE 450 69:12:47 25:44:36
80 085 PENATE MUNOZ Pedro Manuel KH7 VALSEBIKE KTM - 450 71:16:21 27:48:10
81 136 IGARIS GINTAUTAS YAMAHA - WR450F 71:20:19 27:52:08
82 102 ALAN Eduardo ELF ARGENTINA Yamaha - WR 450 72:23:59 28:55:48
83 176 RAAF Greg MEMO TOURS - ALFIE COX TEAM KTM - 450 Replica 73:36:35 30:08:24
84 099 CHERPIN Pierre KTM - 450 RR 74:32:44 31:04:33
85 120 ILLANES Rodrigo TARAPACA RALLY TEAM Husqvarna - TE 449 76:02:56 32:34:45
86 151 BEALUSTEGUI Juan Manuel AL LIMITE DAKAR 2012 YAMAHA - WR 450 F 76:47:22 33:19:11
87 131 THEURIOT Herve REVIVAL AVENTURES YAMAHA - 450 WRF 78:30:24 35:02:13
88 129 DEPOORTER Philippe WIM MOTORS DAKAR KTM - 450 79:08:44 35:40:33
89 158 VELLUTINO Carlo PERUANOS AL DAKAR KTM - 450 EXC 2011 79:13:24 35:45:13
90 140 REINIKE MARCO MARCO REINIKE KTM - 450 RALLY REPLICA 84:31:37 41:03:26
91 111 ESPINASSE SYLVAIN SHERCO RALLY RAID - CROCOAVENTURES SHERCO - SR 450 85:11:24 41:43:13
92 152 TER BEEK RONALD GHR HONDA HONDA - CFR 450 X 85:17:47 41:49:36
93 125 ASTORI Gianernesto ABC RALLY ACTION TEAM KTM - 450 RR 87:38:53 44:10:42
94 094 WEI Guanghui JINCHENG TEAM JINCHENG - JC 450Y 90:53:40 47:25:29
95 128 ANO Julio TEAM NORMAND RAID YAMAHA - WRF 450 91:36:56 48:08:45
96 187 YOUNGER TOBIAS DESERT ROSE RACING KTM - 450EXC 124:04:46 80:36:35
97 160 HAMEL ERIC YAMAHA - 450 WRF 148:55:14 105:27:03

Aucune note. Soyez le premier à attribuer une note !

Ajouter un commentaire
 

Créer un site gratuit avec e-monsite - Signaler un contenu illicite sur ce site